Location: Beaver Brook Trail
(44.0290°N, 71.8137°W)
Time: 04:02:05
(UTC+00:00)

Transit 2A - Visible Passes

Search period start: 12 November 2024 00:00
Search period end: 22 November 2024 00:00
Orbit: 591 x 958 km, 66.7° (Epoch: 11 November)

Date Brightness Start Highest point End Pass type
(mag) Time Alt. Az. Time Alt. Az. Time Alt. Az.
12 Nov 8.9 07:36:27 12° ESE 07:38:29 14° ESE 07:41:36 10° ENE visible
12 Nov 6.5 09:16:57 26° SSW 09:20:43 79° ESE 09:27:02 10° NE visible
12 Nov 7.4 10:59:22 10° W 11:04:33 26° NW 11:09:39 10° NNE visible
13 Nov 6.9 08:43:53 48° SSE 08:45:10 57° ESE 08:51:19 10° NE visible
13 Nov 7.1 10:24:22 16° W 10:28:40 33° NW 10:34:15 10° NNE visible
14 Nov 7.6 08:10:28 39° E 08:10:28 39° E 08:15:30 10° NE visible
14 Nov 6.8 09:50:55 35° W 09:52:51 44° NW 09:58:47 10° NNE visible
15 Nov 8.5 07:36:46 22° ENE 07:36:46 22° ENE 07:39:31 10° NE visible
15 Nov 6.4 09:17:13 59° NW 09:17:13 59° NW 09:23:16 10° NNE visible
15 Nov 7.9 10:57:40 10° WNW 11:01:33 17° NNW 11:05:23 10° N visible
16 Nov 9.2 07:02:53 11° ENE 07:02:53 11° ENE 07:03:15 10° ENE visible
16 Nov 7.1 08:43:20 48° NNE 08:43:20 48° NNE 08:47:42 10° NNE visible
16 Nov 7.7 10:23:45 19° WNW 10:25:31 21° NW 10:30:05 10° N visible
17 Nov 8.0 08:09:17 28° NE 08:09:17 28° NE 08:12:03 10° NE visible
17 Nov 7.4 09:49:42 27° NW 09:49:42 27° NW 09:54:43 10° NNE visible
18 Nov 8.8 07:35:08 16° NE 07:35:08 16° NE 07:36:18 10° NE visible
18 Nov 7.6 09:15:33 29° NNW 09:15:33 29° NNW 09:19:15 10° NNE visible
18 Nov 8.3 10:56:54 10° NW 10:58:43 11° NNW 11:00:32 10° N visible
19 Nov 8.0 08:41:17 24° N 08:41:17 24° N 08:43:46 10° NNE visible
19 Nov 8.1 10:21:42 13° NW 10:22:32 14° NNW 10:25:34 10° N visible
20 Nov 8.6 08:06:58 17° NNE 08:06:58 17° NNE 08:08:13 10° NNE visible
20 Nov 8.1 09:47:22 17° NNW 09:47:22 17° NNW 09:50:21 10° N visible
21 Nov 9.1 07:32:34 10° NNE 07:32:34 10° NNE 07:32:37 10° NNE visible
21 Nov 8.2 09:12:59 17° N 09:12:59 17° N 09:15:02 10° N visible
